EW3670 Weather Reports


Display with metric or nautical units.
time (UTC)temp
F
wind
direction
speed
MPH
gust
MPH
rain 1hr
in
rain 24hr
in
rain mn
in
humidity
%
barometer
mb
20260902181558 75 109 2.0 7.0 0.00 0.00 0.00 78 1012.6
20260902180126 75 163 1.0 6.0 0.00 0.00 0.00 77 1013.1
20260902174600 74 138 2.0 7.0 0.00 0.00 0.00 78 1013.3
20260902173106 74 121 2.0 5.0 0.00 0.00 0.00 78 1013.5
20260902171608 73 63 2.0 6.0 0.00 0.00 0.00 78 1013.9
20260902170103 73 146 3.0 6.0 0.00 0.00 0.00 78 1014.0
20260902164605 73 40 2.0 8.0 0.00 0.00 0.00 77 1014.0
20260902163104 73 146 2.0 7.0 0.00 0.00 0.00 76 1013.8
20260902161605 72 86 3.0 7.0 0.00 0.00 0.00 77 1014.0
20260902160108 71 86 3.0 9.0 0.00 0.00 0.00 76 1013.8
20260902154607 71 153 1.0 8.0 0.00 0.00 0.00 75 1014.2
20260902153100 70 116 1.0 9.0 0.00 0.00 0.00 76 1014.3
20260902151559 69 34 1.0 7.0 0.00 0.00 0.00 75 1014.6
20260902144603 66 31 1.0 7.0 0.00 0.00 0.00 78 1015.1
20260902143105 65 31 1.0 5.0 0.00 0.00 0.00 78 1015.3
20260902141610 64 115 2.0 5.0 0.00 0.00 0.00 79 1015.2
20260902140104 63 98 2.0 6.0 0.00 0.00 0.00 79 1015.7
20260902134605 63 340 1.0 5.0 0.00 0.00 0.00 78 1015.4
20260902133057 63 136 1.0 4.0 0.00 0.00 0.00 79 1015.5
20260902131608 62 142 1.0 6.0 0.00 0.00 0.00 79 1015.7
20260902130103 62 82 2.0 6.0 0.00 0.00 0.00 78 1016.0
20260902124603 62 115 1.0 4.0 0.00 0.00 0.00 78 1016.0
20260902123103 62 131 1.0 6.0 0.00 0.00 0.00 78 1015.5
20260902121604 62 36 1.0 2.0 0.00 0.00 0.00 78 1015.7
20260902120108 62 95 1.0 7.0 0.00 0.00 0.00 78 1015.8
20260902114604 62 106 3.0 8.0 0.00 0.00 0.00 77 1015.7
20260902113113 62 134 1.0 5.0 0.00 0.00 0.00 77 1015.5
20260902111602 62 57 2.0 8.0 0.00 0.00 0.00 77 1015.6
20260902110105 62 5 1.0 6.0 0.00 0.00 0.00 77 1015.4
20260902104601 62 93 2.0 7.0 0.00 0.00 0.00 77 1015.5
20260902103100 62 40 2.0 6.0 0.00 0.00 0.00 77 1015.5
20260902101623 62 163 1.0 4.0 0.00 0.00 0.00 77 1015.7
20260902100101 63 117 2.0 5.0 0.00 0.00 0.00 77 1015.6
20260902094602 63 0 1.0 5.0 0.00 0.00 0.00 77 1015.7
20260902093100 63 57 2.0 6.0 0.00 0.00 0.00 77 1016.1
20260902091605 63 32 0.0 5.0 0.00 0.00 0.00 76 1016.3
20260902090128 63 137 2.0 6.0 0.00 0.00 0.00 76 1015.9
20260902084603 63 36 1.0 4.0 0.00 0.00 0.00 76 1016.0
20260902083053 63 91 1.0 4.0 0.00 0.00 0.00 76 1016.3
20260902081555 63 44 1.0 4.0 0.00 0.00 0.00 77 1016.3
20260902080109 63 59 1.0 3.0 0.00 0.00 0.00 77 1015.9
20260902074558 63 0 1.0 4.0 0.00 0.10 0.00 77 1015.8
20260902073100 63 17 0.0 2.0 0.00 0.10 0.00 76 1015.6
20260902071602 63 51 2.0 4.0 0.00 0.10 0.00 76 1015.3
20260902070106 63 187 1.0 5.0 0.00 0.10 0.00 76 1015.3
20260902064607 64 44 1.0 6.0 0.00 0.12 0.00 75 1015.4
20260902063102 64 126 0.0 4.0 0.00 0.12 0.00 74 1015.6
20260902061625 64 121 1.0 4.0 0.00 0.12 0.00 73 1015.8
20260902060104 65 16 1.0 7.0 0.00 0.12 0.00 72 1016.0
20260902054604 65 45 2.0 7.0 0.00 0.12 0.00 71 1016.1
20260902053106 65 67 1.0 5.0 0.00 0.12 0.00 70 1016.0
20260902051604 66 78 1.0 8.0 0.00 0.12 0.00 69 1016.1
20260902050107 66 16 2.0 5.0 0.00 0.12 0.00 68 1015.9
20260902044608 66 62 1.0 5.0 0.00 0.12 0.00 67 1015.8
20260902043104 66 37 2.0 10.0 0.00 0.12 0.00 67 1016.0
20260902041609 67 47 2.0 7.0 0.00 0.12 0.00 66 1015.9
20260902040107 67 92 3.0 6.0 0.00 0.12 0.00 64 1015.6
20260902034601 67 86 2.0 7.0 0.00 0.12 0.12 63 1015.6
20260902033106 68 101 2.0 8.0 0.00 0.12 0.12 63 1015.6
20260902031558 68 35 1.0 5.0 0.00 0.12 0.12 63 1015.6
20260902030118 68 360 2.0 4.0 0.00 0.12 0.12 62 1015.5
20260902024601 68 51 1.0 4.0 0.00 0.12 0.12 62 1015.5
20260902023112 68 24 2.0 6.0 0.00 0.12 0.12 62 1015.5
20260902021621 68 42 2.0 6.0 0.00 0.12 0.12 62 1015.4
20260902020104 68 57 2.0 4.0 0.00 0.12 0.12 62 1015.2
20260902014557 68 148 2.0 4.0 0.00 0.12 0.12 61 1015.1
20260902013056 69 58 1.0 6.0 0.00 0.12 0.12 61 1015.3
20260902011602 69 80 1.0 8.0 0.00 0.12 0.12 60 1015.5
20260902004605 70 55 2.0 7.0 0.00 0.12 0.12 58 1015.0
20260902003101 71 155 2.0 6.0 0.00 0.12 0.12 57 1014.9
20260902001553 71 122 2.0 4.0 0.00 0.12 0.12 56 1014.8
20260902000104 72 134 2.0 5.0 0.00 0.12 0.12 55 1015.0
20260901234614 72 106 2.0 8.0 0.00 0.12 0.12 54 1015.1
20260901233103 73 98 1.0 7.0 0.00 0.12 0.12 53 1015.3
20260901231606 73 113 2.0 8.0 0.00 0.12 0.12 54 1015.5
20260901230138 74 74 2.0 11.0 0.00 0.12 0.12 54 1015.7
20260901224601 74 80 3.0 10.0 0.00 0.12 0.12 54 1015.7
20260901223110 74 124 2.0 9.0 0.00 0.12 0.12 54 1015.6
20260901221603 74 138 2.0 9.0 0.00 0.12 0.12 53 1015.6
20260901220108 75 128 3.0 9.0 0.00 0.12 0.12 53 1015.6
20260901214602 75 139 2.0 13.0 0.00 0.12 0.12 52 1015.3
20260901213106 75 157 3.0 12.0 0.00 0.12 0.12 52 1015.3
20260901211603 76 121 4.0 10.0 0.00 0.12 0.12 51 1015.2
20260901210104 76 148 2.0 11.0 0.00 0.12 0.12 52 1014.9
20260901204605 76 340 3.0 9.0 0.00 0.12 0.12 50 1015.0
20260901203120 76 57 3.0 10.0 0.00 0.12 0.12 51 1014.8
20260901201602 76 82 4.0 10.0 0.00 0.12 0.12 50 1014.5
20260901200106 76 144 3.0 9.0 0.00 0.12 0.12 49 1014.5
20260901194608 76 132 6.0 12.0 0.00 0.12 0.12 50 1014.6
20260901193106 77 86 4.0 12.0 0.00 0.12 0.12 50 1014.3
20260901191603 77 102 5.0 10.0 0.00 0.12 0.12 49 1014.9
20260901190109 77 98 5.0 11.0 0.00 0.12 0.12 49 1015.1
20260901184556 77 38 5.0 12.0 0.00 0.12 0.12 51 1015.0
20260901183110 76 39 5.0 12.0 0.00 0.12 0.12 52 1014.8